[[{"header":{"parameterUnit":"m.s-1","parameterCategory":1,"la1":30.2991,"la2":30.254,"lo1":-89.0895,"lo2":-89.0444,"dy":0.0017,"dx":0.0017,"nx":28,"ny":28,"refTime":"2024-02-10T03:00:00:Z","depth":0,"parameterNumber":2,"parameterNumberName":"U-component_of_WINDS"},"data":[0,0,0,0,0,0,0,0,0,0,0,0,0,0,0,0,0,0,0,0,0,0,0,0,0,0,0,0,0,0,0,0,0,0,0,0,0,0,0,0,0,0,0,0,0,0,0,0,0,0,0,0,0,0,0,0,0,0,-2.1319,-2.1318,0,-2.1298,-2.1297,-2.1297,-2.1246,-2.1245,-2.1244,-2.1243,-2.1221,-2.1222,-2.1222,0,0,0,0,0,0,0,0,0,0,0,0,0,-2.1316,-2.1316,-2.1319,-2.1318,-2.1318,-2.1298,-2.1297,-2.1297,-2.1246,-2.1245,-2.1244,-2.1243,-2.1221,-2.1222,-2.1222,0,0,0,0,0,0,0,0,0,0,0,0,0,-2.1308,-2.1316,-2.1319,-2.129,-2.1288,-2.1298,-2.1297,-2.1297,-2.1247,-2.1245,-2.1243,-2.1242,-2.1221,-2.1222,-2.1222,-2.1258,0,0,-2.1224,-2.1225,0,0,0,0,0,0,0,0,-2.1309,-2.1308,-2.1295,-2.1292,-2.1289,-2.1273,-2.1288,-2.1284,-2.1247,-2.1262,-2.1243,-2.1241,-2.124,-2.1239,-2.1238,-2.1257,-2.1256,-2.1224,-2.1225,-2.1225,-2.1225,0,0,0,0,0,0,0,-2.1309,-2.1309,-2.131,-2.1295,-2.1291,-2.1279,-2.1276,-2.1287,-2.126,-2.1261,-2.1257,-2.1255,-2.1238,-2.1238,-2.1237,-2.1256,-2.1224,-2.1225,-2.1225,-2.1225,-2.1304,-2.1306,0,0,0,0,0,0,-2.1314,-2.131,-2.1311,-2.131,-2.1295,-2.128,-2.1277,-2.128,-2.126,-2.1255,-2.1257,-2.1253,-2.1238,-2.1237,-2.1237,-2.1277,-2.1225,-2.1226,-2.1226,-2.1302,-2.1304,-2.1306,0,0,0,0,0,0,-2.1314,-2.1314,-2.1312,-2.1309,-2.1307,-2.1282,-2.1285,-2.128,-2.128,-2.1257,-2.1252,-2.1261,-2.1236,-2.1236,-2.1253,-2.1275,-2.1226,-2.1226,-2.13,-2.1303,-2.1305,-2.1358,0,0,0,0,0,0,-2.1314,-2.1315,-2.1328,-2.1309,-2.1308,-2.1329,-2.1287,-2.1281,-2.1281,-2.1276,-2.126,-2.1256,-2.1235,-2.1253,-2.1254,-2.1275,-2.1227,-2.1298,-2.1301,-2.1304,-2.1354,-2.1362,-2.1369,0,0,0,0,0,-2.1314,-2.1343,-2.1329,-2.1329,-2.1323,-2.133,-2.1329,-2.1305,-2.1283,-2.1296,-2.1282,-2.1256,-2.1274,-2.1255,-2.1256,-2.1278,-2.1297,-2.1301,-2.1304,-2.1351,-2.1361,-2.1369,0,0,0,0,0,0,-2.1364,-2.134,-2.1324,-2.1348,-2.1342,-2.1321,-2.1337,-2.1316,-2.1315,-2.131,-2.128,-2.1277,-2.1299,-2.1291,-2.127,-2.1312,-2.1281,-2.1285,-2.1316,-2.1325,-2.1332,-2.1333,-2.1227,0,0,0,0,0,-2.1378,-2.1386,-2.1364,-2.1388,-2.1386,-2.1362,-2.1364,-2.1346,-2.1338,-2.1335,-2.1322,-2.1315,-2.1319,-2.1322,-2.1324,-2.1354,-2.1349,-2.137,-2.1377,-2.1383,-2.1386,-2.1401,-2.141,-2.1319,-2.1319,-2.1319,0,0,-2.1407,-2.1395,-2.1401,-2.1398,-2.139,-2.1399,-2.136,-2.137,-2.1376,-2.1337,-2.1352,-2.1343,-2.1333,-2.1357,-2.1367,-2.1351,-2.1411,-2.1388,-2.1393,-2.1393,-2.1406,-2.1415,-2.1423,-2.1321,-2.1321,-2.1321,0,0,-2.1463,-2.1455,-2.1473,-2.1467,-2.1457,-2.1442,-2.1447,-2.143,-2.1422,-2.1438,-2.1409,-2.1416,-2.1423,-2.1418,-2.1416,-2.1473,-2.1449,-2.1475,-2.1512,-2.1527,-2.1534,-2.154,-2.1559,-2.1567,-2.1479,-2.1479,-2.1479,0,-2.1499,-2.151,-2.1485,-2.1497,-2.1497,-2.1463,-2.1481,-2.1477,-2.1469,-2.1469,-2.1451,-2.1461,-2.1452,-2.1474,-2.1488,-2.1488,-2.1492,-2.1475,-2.1535,-2.1541,-2.1547,-2.1564,-2.1572,-2.1482,-2.1481,-2.1481,-2.1481,0,-2.1555,-2.1564,-2.158,-2.1573,-2.1574,-2.159,-2.1567,-2.1572,-2.1555,-2.1542,-2.1559,-2.1548,-2.1547,-2.1552,-2.1535,-2.1572,-2.1562,-2.1541,-2.1508,-2.1559,-2.1575,-2.1582,-2.1486,-2.1485,-2.1484,-2.1483,0,0,-2.1639,-2.1619,-2.1625,-2.1622,-2.161,-2.1616,-2.1631,-2.1631,-2.1635,-2.1632,-2.1643,-2.1651,-2.1631,-2.1629,-2.1612,-2.1626,-2.167,-2.1602,-2.1602,-2.1614,-2.171,-2.1724,-2.1733,-2.1656,-2.1657,-2.1658,-2.171,0,-2.169,-2.1713,-2.1692,-2.1719,-2.1726,-2.1696,-2.1709,-2.1703,-2.1692,-2.1697,-2.1685,-2.169,-2.1665,-2.1663,-2.1676,-2.1662,-2.1689,-2.1659,-2.1665,-2.1666,-2.1666,-2.1741,-2.1756,-2.1805,-2.1716,-2.1717,-2.1718,0,-2.1752,-2.1751,-2.1779,-2.1766,-2.1768,-2.178,-2.1779,-2.1784,-2.1778,-2.1769,-2.1768,-2.1748,-2.1761,-2.1732,-2.1751,-2.1731,-2.1733,-2.1727,-2.1729,-2.1726,-2.1693,-2.1739,-2.1821,-2.1827,-2.1728,-2.1727,-2.1727,0,-2.1808,-2.1815,-2.1832,-2.1831,-2.1816,-2.1825,-2.182,-2.1812,-2.1813,-2.1813,-2.1814,-2.1815,-2.1815,-2.1817,-2.1798,-2.1778,-2.1819,-2.1788,-2.1811,-2.1811,-2.1818,-2.1817,-2.1899,-2.1824,-2.1823,-2.1823,-2.1823,0,-2.1866,-2.1884,-2.1857,-2.1868,-2.1888,-2.1864,-2.1885,-2.1876,-2.187,-2.1878,-2.1853,-2.1861,-2.1836,-2.1843,-2.1828,-2.1845,-2.1846,-2.1839,-2.1834,-2.184,-2.184,-2.1838,-2.1834,-2.1825,-2.1825,-2.1824,-2.1824,0,-2.1931,-2.1914,-2.1931,-2.1917,-2.1914,-2.1929,-2.1916,-2.1926,-2.1914,-2.1925,-2.1927,-2.1908,-2.1914,-2.1896,-2.19,-2.189,-2.1914,-2.1905,-2.1916,-2.1913,-2.1936,-2.1934,-2.2018,-2.2027,-2.1948,-2.1948,-2.1949,0,-2.1968,-2.1981,-2.1969,-2.1973,-2.1968,-2.1975,-2.1977,-2.1956,-2.1959,-2.1954,-2.1964,-2.1968,-2.197,-2.1982,-2.1968,-2.1971,-2.1961,-2.199,-2.1961,-2.1966,-2.1959,-2.1958,-2.1959,-2.1995,-2.1996,-2.1997,-2.1998,0,-2.2034,-2.2026,-2.2029,-2.2031,-2.2034,-2.2034,-2.2032,-2.2037,-2.2014,-2.2019,-2.2026,-2.2027,-2.2031,-2.2036,-2.2036,-2.203,-2.201,-2.2008,-2.2013,-2.2017,-2.2022,-2.2018,-2.1931,-2.2005,-2.2004,-2.2004,-2.2003,-2.2003,-2.2085,-2.2095,-2.2088,-2.2094,-2.2091,-2.209,-2.2098,-2.2088,-2.2093,-2.2094,-2.2082,-2.2091,-2.2085,-2.2084,-2.2081,-2.2087,-2.2074,-2.2082,-2.2083,-2.2085,-2.2088,-2.2024,-2.2088,-2.2087,-2.2087,-2.2087,-2.2087,0,-2.2149,-2.2144,-2.2149,-2.2147,-2.2152,-2.2134,-2.2132,-2.2136,-2.2145,-2.2141,-2.2144,-2.2152,-2.2157,-2.2145,-2.2148,-2.2156,-2.2147,-2.2157,-2.2155,-2.2154,-2.2101,-2.2095,-2.2164,-2.2164,-2.2164,-2.2164,-2.2164,-2.2164,-2.2183,-2.2199,-2.219,-2.2205,-2.22,-2.2208,-2.2208,-2.2208,-2.2205,-2.2214,-2.2218,-2.2211,-2.2205,-2.2207,-2.2211,-2.2207,-2.2209,-2.2222,-2.2215,-2.2165,-2.2158,-2.215,-2.2145,-2.2223,-2.2223,-2.2268,-2.2268,-2.2268]},{"header":{"parameterUnit":"m.s-1","parameterCategory":1,"la1":30.2991,"la2":30.254,"lo1":-89.0895,"lo2":-89.0444,"dy":0.0017,"dx":0.0017,"nx":28,"ny":28,"refTime":"2024-02-10T03:00:00:Z","depth":0,"parameterNumber":3,"parameterNumberName":"V-component_of_WINDS"},"data":[0,0,0,0,0,0,0,0,0,0,0,0,0,0,0,0,0,0,0,0,0,0,0,0,0,0,0,0,0,0,0,0,0,0,0,0,0,0,0,0,0,0,0,0,0,0,0,0,0,0,0,0,0,0,0,0,0,0,1.8735,1.8736,0,1.8839,1.8841,1.8842,1.8892,1.8892,1.8892,1.8892,1.8999,1.9002,1.9005,0,0,0,0,0,0,0,0,0,0,0,0,0,1.858,1.8582,1.8735,1.8736,1.8737,1.8839,1.8841,1.8842,1.8892,1.8892,1.8892,1.8892,1.8998,1.9002,1.9005,0,0,0,0,0,0,0,0,0,0,0,0,0,1.8662,1.8583,1.8735,1.8775,1.878,1.8839,1.8841,1.8842,1.8893,1.8892,1.8892,1.8892,1.8997,1.9001,1.9005,1.9033,0,0,1.9019,1.902,0,0,0,0,0,0,0,0,1.8657,1.8667,1.8768,1.8772,1.8778,1.8853,1.8825,1.8906,1.8893,1.885,1.8892,1.8892,1.895,1.8959,1.8978,1.9038,1.9042,1.9019,1.9022,1.9023,1.9025,0,0,0,0,0,0,0,1.8651,1.8663,1.8776,1.8769,1.8775,1.8788,1.88,1.8841,1.8899,1.8853,1.8857,1.8869,1.8953,1.8974,1.8981,1.9044,1.9019,1.9023,1.9025,1.9027,1.9132,1.9133,0,0,0,0,0,0,1.8639,1.8658,1.8773,1.8779,1.8716,1.8791,1.8804,1.8829,1.8899,1.8909,1.8869,1.8871,1.8967,1.8976,1.8985,1.9023,1.9023,1.9027,1.903,1.9132,1.9133,1.9133,0,0,0,0,0,0,1.8636,1.8649,1.8769,1.872,1.8736,1.8794,1.8821,1.8831,1.8852,1.891,1.8921,1.8879,1.8967,1.8979,1.9021,1.9027,1.9029,1.9033,1.9132,1.9132,1.9133,1.9098,0,0,0,0,0,0,1.8631,1.8647,1.8658,1.872,1.8739,1.8802,1.8821,1.8833,1.8859,1.8863,1.8923,1.8933,1.8968,1.9014,1.9025,1.9033,1.9037,1.9132,1.9132,1.9133,1.9099,1.9097,1.9095,0,0,0,0,0,1.8625,1.8643,1.8658,1.8672,1.8753,1.8803,1.8813,1.8853,1.8859,1.8871,1.8909,1.8931,1.9024,1.9018,1.9031,1.904,1.9131,1.9132,1.9133,1.9099,1.9097,1.9095,0,0,0,0,0,0,1.858,1.8652,1.8669,1.8708,1.8749,1.8811,1.8827,1.8849,1.8889,1.8891,1.8939,1.8952,1.899,1.9019,1.901,1.9071,1.908,1.9083,1.9051,1.9049,1.9047,1.904,1.904,0,0,0,0,0,1.8575,1.8609,1.867,1.8698,1.8718,1.8769,1.8792,1.8819,1.8863,1.8881,1.8922,1.8964,1.9003,1.9027,1.9066,1.9103,1.9117,1.9116,1.9114,1.9112,1.9115,1.9138,1.9138,1.9134,1.9134,1.9134,0,0,1.8564,1.8608,1.8626,1.8691,1.8726,1.876,1.8783,1.8818,1.8845,1.8886,1.8929,1.896,1.901,1.905,1.9069,1.9075,1.9119,1.9113,1.9111,1.9115,1.9138,1.9139,1.9139,1.9135,1.9135,1.9135,0,0,1.8563,1.8599,1.8627,1.8662,1.8715,1.8748,1.8755,1.8814,1.8837,1.888,1.8912,1.8944,1.901,1.9045,1.9071,1.9084,1.9107,1.9096,1.9087,1.9109,1.911,1.911,1.9116,1.9118,1.9098,1.9098,1.9097,0,1.8543,1.8597,1.8639,1.8673,1.8701,1.874,1.877,1.8801,1.8864,1.8882,1.8888,1.8973,1.9009,1.9058,1.9062,1.9081,1.9091,1.9089,1.9106,1.9107,1.9108,1.9115,1.9116,1.9096,1.9096,1.9096,1.9096,0,1.857,1.8607,1.8624,1.8684,1.8714,1.8745,1.8793,1.8818,1.8842,1.8875,1.892,1.8965,1.9015,1.9028,1.9052,1.9081,1.9083,1.9097,1.9107,1.9106,1.9113,1.9116,1.9094,1.9094,1.9095,1.9095,0,0,1.8544,1.8627,1.8633,1.8661,1.8723,1.8752,1.8786,1.8835,1.8856,1.8898,1.8928,1.8983,1.8997,1.9027,1.9055,1.9074,1.9084,1.9086,1.9088,1.9085,1.912,1.911,1.9112,1.9099,1.9099,1.91,1.9116,0,1.8552,1.8615,1.8654,1.8701,1.8736,1.8774,1.8804,1.8845,1.8877,1.8912,1.8947,1.8987,1.9001,1.9019,1.904,1.9078,1.9091,1.9077,1.9128,1.9129,1.9115,1.9115,1.9105,1.9118,1.9119,1.9119,1.912,0,1.857,1.8612,1.8662,1.8721,1.8738,1.8763,1.8812,1.8845,1.8892,1.8915,1.8948,1.8977,1.9015,1.9022,1.9075,1.9065,1.9088,1.911,1.9112,1.9119,1.9125,1.9123,1.9123,1.9125,1.9124,1.9123,1.9123,0,1.8547,1.8616,1.8656,1.8678,1.8748,1.8765,1.8795,1.8843,1.887,1.8913,1.8931,1.8977,1.9002,1.9038,1.9079,1.9079,1.9128,1.9138,1.9149,1.9147,1.9158,1.9157,1.9162,1.917,1.917,1.917,1.917,0,1.8553,1.8582,1.8646,1.8671,1.8706,1.8751,1.8784,1.8817,1.8859,1.8891,1.8927,1.8956,1.9008,1.9044,1.9076,1.9116,1.9127,1.9146,1.9155,1.9144,1.9141,1.916,1.9161,1.9171,1.9171,1.9171,1.9171,0,1.8533,1.8577,1.8623,1.8685,1.8702,1.8725,1.8778,1.8804,1.8838,1.8878,1.889,1.8944,1.8988,1.9032,1.9091,1.9113,1.9153,1.9163,1.9137,1.9142,1.915,1.9149,1.9169,1.9174,1.9177,1.9177,1.9177,0,1.8535,1.8559,1.8624,1.8648,1.8677,1.8715,1.8744,1.8789,1.8817,1.8874,1.8893,1.894,1.898,1.9048,1.9093,1.9138,1.9151,1.9155,1.9158,1.9147,1.9153,1.9151,1.9155,1.9154,1.9153,1.9153,1.9153,0,1.8533,1.8554,1.8593,1.8641,1.8674,1.8713,1.8754,1.8772,1.8825,1.8855,1.8901,1.8932,1.8993,1.9039,1.909,1.9121,1.9146,1.9151,1.9157,1.9146,1.913,1.914,1.9134,1.9151,1.9151,1.9151,1.9151,1.9151,1.8525,1.8549,1.8599,1.8642,1.8677,1.8715,1.8743,1.8781,1.882,1.8873,1.8897,1.8944,1.8992,1.9063,1.9094,1.9131,1.9138,1.9145,1.9147,1.9148,1.9146,1.9123,1.914,1.914,1.9141,1.9141,1.9141,0,1.8526,1.856,1.86,1.8656,1.869,1.8711,1.8758,1.8785,1.8825,1.8868,1.8907,1.896,1.9006,1.9054,1.9102,1.9123,1.9136,1.9134,1.9134,1.9141,1.9137,1.9128,1.9123,1.9123,1.9123,1.9123,1.9123,1.9123,1.8531,1.8573,1.8599,1.866,1.8694,1.874,1.8765,1.88,1.8835,1.8893,1.8931,1.8962,1.9007,1.9059,1.9102,1.9115,1.9132,1.9127,1.9144,1.9139,1.9141,1.9142,1.9134,1.913,1.913,1.9145,1.9145,1.9145]}]]